TimePST,TemperatureF,Dew PointF,Humidity,Sea Level PressureIn,VisibilityMPH,Wind Direction,Wind SpeedMPH,Gust SpeedMPH,PrecipitationIn,Events,Conditions,WindDirDegrees,DateUTC
12:53 AM,44.1,37.9,79,29.91,10.0,Calm,Calm,-,0.00,,Mostly Cloudy,0,2012-12-03 08:53:00
1:53 AM,44.1,39.0,82,29.93,10.0,SSE,4.6,-,N/A,,Overcast,150,2012-12-03 09:53:00
2:53 AM,42.1,37.9,85,29.95,10.0,Calm,Calm,-,N/A,,Mostly Cloudy,0,2012-12-03 10:53:00
3:53 AM,44.1,37.9,79,29.96,10.0,Calm,Calm,-,N/A,,Mostly Cloudy,0,2012-12-03 11:53:00
4:53 AM,46.0,37.9,73,29.97,10.0,ESE,3.5,-,N/A,,Overcast,120,2012-12-03 12:53:00
5:53 AM,45.0,39.0,80,29.99,10.0,NW,5.8,-,N/A,,Overcast,310,2012-12-03 13:53:00
7:53 AM,45.0,42.1,90,30.01,10.0,Calm,Calm,-,0.00,,Overcast,0,2012-12-03 15:53:00
8:53 AM,48.0,44.1,86,30.02,10.0,Calm,Calm,-,0.00,,Overcast,0,2012-12-03 16:53:00
9:53 AM,48.9,43.0,80,30.04,10.0,NNW,5.8,-,N/A,,Overcast,340,2012-12-03 17:53:00
10:53 AM,50.0,44.1,80,30.06,10.0,North,4.6,-,N/A,,Overcast,350,2012-12-03 18:53:00
11:53 AM,51.1,44.1,77,30.05,10.0,Calm,Calm,-,0.00,Rain,Light Rain,0,2012-12-03 19:53:00
12:53 PM,50.0,45.0,83,30.05,10.0,NW,4.6,-,0.00,,Overcast,320,2012-12-03 20:53:00
1:53 PM,50.0,45.0,83,30.04,10.0,WNW,3.5,-,0.00,,Overcast,300,2012-12-03 21:53:00
2:53 PM,51.1,45.0,80,30.03,10.0,NNW,3.5,-,N/A,,Overcast,340,2012-12-03 22:53:00
3:53 PM,50.0,45.0,83,30.03,10.0,Calm,Calm,-,N/A,,Mostly Cloudy,0,2012-12-03 23:53:00
4:53 PM,48.0,45.0,89,30.02,10.0,Calm,Calm,-,N/A,,Mostly Cloudy,0,2012-12-04 00:53:00
5:53 PM,46.9,44.1,90,30.01,10.0,Calm,Calm,-,N/A,,Overcast,0,2012-12-04 01:53:00
6:53 PM,45.0,43.0,93,29.99,10.0,North,3.5,-,N/A,,Clear,10,2012-12-04 02:53:00
7:53 PM,46.0,43.0,89,29.96,10.0,Calm,Calm,-,N/A,,Partly Cloudy,0,2012-12-04 03:53:00
8:35 PM,44.6,42.8,93,29.92,1.8,Calm,Calm,-,N/A,,Clear,0,2012-12-04 04:35:00
8:46 PM,44.6,42.8,93,29.91,3.0,Calm,Calm,-,N/A,,Partly Cloudy,0,2012-12-04 04:46:00
8:53 PM,44.1,43.0,96,29.91,9.0,Calm,Calm,-,N/A,,Partly Cloudy,0,2012-12-04 04:53:00
9:53 PM,43.0,41.0,93,29.87,7.0,Calm,Calm,-,N/A,,Mostly Cloudy,0,2012-12-04 05:53:00
10:53 PM,43.0,41.0,93,29.83,8.0,Calm,Calm,-,N/A,,Overcast,0,2012-12-04 06:53:00
11:53 PM,44.1,42.1,93,29.82,7.0,ENE,4.6,-,0.01,Rain,Light Rain,60,2012-12-04 07:53:00